Weather History for Dayton Wright, OH

Change the Weather History Date:

Saturday, November 30, 2013

  Actual Average (KFFO) Record (KFFO)
Temperature  
Mean Temperature 38 °F -  
Max Temperature 48 °F 45 °F 68 °F (1998)
Min Temperature 27 °F 30 °F 17 °F (1999)
Degree Days  
Heating Degree Days 28    
Moisture  
Dew Point 23 °F    
Average Humidity 60    
Maximum Humidity 72    
Minimum Humidity 41    
Precipitation  
Precipitation 0.00 in - - ()
Sea Level Pressure  
Sea Level Pressure 30.35 in    
Wind  
Wind Speed 6 mph (South)    
Max Wind Speed 10 mph    
Max Gust Speed -    
Visibility 10 miles    
Events      
Averages and records for this station are not official NWS values.
T = Trace of Precipitation, MM = Missing Value Source: NWS Daily Summary

Daily Weather History Graph

Daily Weather History Graph

Search for Another Location

Airport:

Trip Planner

Search our weather history database for the weather conditions in past years. The results will help you decide how hot, cold, wet, or windy it might be!

Date:

Astronomy

Nov. 30, 2013 Rise Set
Actual Time 7:37 AM EST 5:13 PM EST
Civil Twilight 7:07 AM EST 5:43 PM EST
Nautical Twilight 6:34 AM EST 6:16 PM EST
Astronomical Twilight 6:02 AM EST 6:49 PM EST
Moon 4:48 AM EST (11/30) 3:36 PM EST (11/30)
Length of Visible Light 10h 35m
Length of Day
9h 35m
Waning Crescent, 7% of the Moon is Illuminated
Nov 30
Waning Crescent
Dec 2
New
Dec 9
First Quarter
Dec 17
Full
Dec 25
Last Quarter

Hourly Weather History & Observations

Time (EST) Temp. Windchill Dew Point Humidity Pressure Visibility Wind Dir Wind Speed Gust Speed Precip Events Conditions
12:53 AM 28.9 °F 22.8 °F 19.0 °F 67% 30.51 in 10.0 mi ESE 5.8 mph - N/A   Clear
1:53 AM 27.0 °F 20.5 °F 19.0 °F 72% 30.51 in 10.0 mi East 5.8 mph - N/A   Clear
2:53 AM 27.0 °F 20.5 °F 19.0 °F 72% 30.49 in 10.0 mi ESE 5.8 mph - N/A   Clear
3:53 AM 28.0 °F 22.8 °F 19.9 °F 72% 30.47 in 10.0 mi ESE 4.6 mph - N/A   Clear
4:53 AM 28.9 °F 25.2 °F 19.9 °F 69% 30.47 in 10.0 mi ESE 3.5 mph - N/A   Clear
5:53 AM 30.0 °F 24.1 °F 19.9 °F 66% 30.46 in 10.0 mi SE 5.8 mph - N/A   Clear
6:53 AM 30.9 °F 27.5 °F 19.9 °F 64% 30.45 in 10.0 mi SE 3.5 mph - N/A   Clear
7:53 AM 28.9 °F 25.2 °F 19.9 °F 69% 30.44 in 10.0 mi South 3.5 mph - N/A   Clear
8:53 AM 30.0 °F 25.2 °F 21.0 °F 69% 30.45 in 10.0 mi SSW 4.6 mph - N/A   Clear
9:53 AM 33.1 °F 25.5 °F 23.0 °F 66% 30.42 in 10.0 mi South 9.2 mph - N/A   Clear
10:53 AM 37.0 °F 29.8 °F 24.1 °F 59% 30.42 in 10.0 mi SW 10.4 mph - N/A   Clear
11:53 AM 39.9 °F 33.9 °F 25.0 °F 55% 30.38 in 10.0 mi SSW 9.2 mph - N/A   Clear
12:53 PM 44.1 °F 40.1 °F 25.0 °F 47% 30.34 in 10.0 mi SW 6.9 mph - N/A   Clear
1:53 PM 46.0 °F 41.9 °F 25.0 °F 44% 30.30 in 10.0 mi SW 8.1 mph - N/A   Clear
2:53 PM 48.0 °F - 26.1 °F 42% 30.27 in 10.0 mi SSW 10.4 mph - N/A   Clear
3:53 PM 48.0 °F - 25.0 °F 41% 30.25 in 10.0 mi SSW 9.2 mph - N/A   Clear
4:53 PM 45.0 °F 40.6 °F 26.1 °F 48% 30.23 in 10.0 mi South 8.1 mph - N/A   Clear
5:53 PM 41.0 °F 35.8 °F 26.1 °F 55% 30.22 in 10.0 mi South 8.1 mph - N/A   Clear
6:53 PM 39.0 °F 34.0 °F 26.1 °F 60% 30.22 in 10.0 mi South 6.9 mph - N/A   Clear
7:53 PM 41.0 °F 38.0 °F 26.1 °F 55% 30.22 in 10.0 mi South 4.6 mph - N/A   Mostly Cloudy
8:53 PM 39.0 °F 33.4 °F 26.1 °F 60% 30.20 in 10.0 mi South 8.1 mph - N/A   Clear
9:53 PM 37.0 °F 31.0 °F 26.1 °F 65% 30.20 in 10.0 mi South 8.1 mph - N/A   Clear
10:53 PM 36.0 °F 30.3 °F 26.1 °F 67% 30.19 in 10.0 mi South 6.9 mph - N/A   Clear
11:53 PM 37.0 °F 31.6 °F 26.1 °F 65% 30.18 in 10.0 mi South 6.9 mph - N/A   Clear